GFA513 OMDB-OBBI

Flight info

Callsign GFA513
Flight time 0h 47m
Altitude 26000
Route NABI3F NABIX P699 ORMID M556 ORDIG ORDIG1
Aircraft A21N/M-VGDW/C

Departure

Time 2026-04-20 16:47
Airport Dubai International Airport (OMDB)

Arrival

Time 2026-04-20 17:35
Airport Bahrain International Airport (OBBI)
Time Latitude Longitude Altitude Speed Heading
2026-04-20 16:26 25.25730 55.34753 16 ft 0 kts 211°
2026-04-20 16:33 25.25735 55.34756 16 ft 2 kts 211°
2026-04-20 16:33 25.25747 55.34764 16 ft 2 kts 211°
2026-04-20 16:34 25.25762 55.34775 17 ft 3 kts 211°
2026-04-20 16:34 25.25780 55.34786 17 ft 3 kts 208°
2026-04-20 16:34 25.25799 55.34796 18 ft 3 kts 196°
2026-04-20 16:34 25.25812 55.34797 17 ft 2 kts 155°
2026-04-20 16:35 25.25822 55.34789 17 ft 2 kts 126°
2026-04-20 16:35 25.25827 55.34780 18 ft 0 kts 122°
2026-04-20 16:39 25.25825 55.34784 15 ft 2 kts 122°
2026-04-20 16:40 25.25813 55.34806 16 ft 5 kts 121°
2026-04-20 16:40 25.25790 55.34847 15 ft 8 kts 121°
2026-04-20 16:40 25.25757 55.34907 15 ft 11 kts 121°
2026-04-20 16:40 25.25713 55.34985 15 ft 13 kts 121°
2026-04-20 16:41 25.25664 55.35081 16 ft 15 kts 116°
2026-04-20 16:41 25.25713 55.35183 15 ft 17 kts 32°
2026-04-20 16:41 25.25820 55.35255 15 ft 19 kts 31°
2026-04-20 16:41 25.25897 55.35307 15 ft 20 kts 31°
2026-04-20 16:42 25.25997 55.35472 15 ft 22 kts 94°
2026-04-20 16:42 25.25935 55.35630 15 ft 23 kts 121°
2026-04-20 16:42 25.25876 55.35735 15 ft 24 kts 121°
2026-04-20 16:42 25.25785 55.35899 15 ft 26 kts 122°
2026-04-20 16:43 25.25687 55.36069 15 ft 27 kts 122°
2026-04-20 16:43 25.25586 55.36253 15 ft 29 kts 121°
2026-04-20 16:43 25.25481 55.36446 15 ft 30 kts 121°
2026-04-20 16:43 25.25369 55.36649 15 ft 32 kts 121°
2026-04-20 16:44 25.25251 55.36860 15 ft 33 kts 121°
2026-04-20 16:44 25.25128 55.37081 15 ft 34 kts 121°
2026-04-20 16:44 25.25001 55.37313 15 ft 36 kts 121°
2026-04-20 16:44 25.24870 55.37554 17 ft 37 kts 121°
2026-04-20 16:45 25.24764 55.37747 16 ft 19 kts 122°
2026-04-20 16:45 25.24693 55.37871 17 ft 20 kts 122°
2026-04-20 16:45 25.24692 55.37968 17 ft 9 kts 40°
2026-04-20 16:45 25.24750 55.38007 17 ft 11 kts 31°
2026-04-20 16:46 25.24819 55.38001 17 ft 13 kts 309°
2026-04-20 16:46 25.24841 55.37968 17 ft 0 kts 301°
2026-04-20 16:46 25.24875 55.37904 16 ft 32 kts 301°
2026-04-20 16:47 25.25125 55.37455 15 ft 103 kts 301°
2026-04-20 16:47 25.25602 55.36593 15 ft 158 kts 301°
2026-04-20 16:47 25.26240 55.35449 303 ft 174 kts 301°
2026-04-20 16:47 25.26847 55.34309 921 ft 173 kts 301°
2026-04-20 16:48 25.27465 55.33175 1516 ft 176 kts 302°
2026-04-20 16:48 25.28127 55.32002 2059 ft 184 kts 302°
2026-04-20 16:48 25.28804 55.30747 2582 ft 196 kts 298°
2026-04-20 16:48 25.29172 55.29245 3167 ft 212 kts 272°
2026-04-20 16:49 25.28848 55.27590 3686 ft 233 kts 248°
2026-04-20 16:49 25.28136 55.25925 4371 ft 244 kts 245°
2026-04-20 16:49 25.27666 55.24081 4882 ft 259 kts 271°
2026-04-20 16:49 25.27845 55.22079 5399 ft 271 kts 281°
2026-04-20 16:50 25.28161 55.19997 6130 ft 277 kts 282°
2026-04-20 16:50 25.28474 55.17878 6910 ft 280 kts 282°
2026-04-20 16:50 25.28774 55.15738 7717 ft 283 kts 281°
2026-04-20 16:50 25.29071 55.13574 8546 ft 286 kts 282°
2026-04-20 16:51 25.29364 55.11392 9370 ft 289 kts 281°
2026-04-20 16:51 25.29654 55.09208 10141 ft 293 kts 282°
2026-04-20 16:51 25.29958 55.06903 10526 ft 313 kts 281°
2026-04-20 16:51 25.30281 55.04441 10816 ft 334 kts 281°
2026-04-20 16:52 25.30622 55.01821 11090 ft 354 kts 281°
2026-04-20 16:52 25.30975 54.99076 11551 ft 365 kts 281°
2026-04-20 16:52 25.31333 54.96271 12228 ft 369 kts 281°
2026-04-20 16:52 25.31699 54.93442 12948 ft 372 kts 281°
2026-04-20 16:53 25.32068 54.90599 13650 ft 376 kts 281°
2026-04-20 16:53 25.32439 54.87728 14262 ft 379 kts 281°
2026-04-20 16:53 25.32811 54.84833 14871 ft 382 kts 281°
2026-04-20 16:53 25.33185 54.81913 15461 ft 385 kts 280°
2026-04-20 16:54 25.33561 54.79014 16036 ft 388 kts 280°
2026-04-20 16:54 25.33950 54.76052 16615 ft 391 kts 280°
2026-04-20 16:54 25.34332 54.73062 17198 ft 394 kts 279°
2026-04-20 16:54 25.34713 54.70049 17774 ft 398 kts 279°
2026-04-20 16:55 25.35106 54.67003 18318 ft 401 kts 279°
2026-04-20 16:55 25.35494 54.63939 18810 ft 403 kts 279°
2026-04-20 16:55 25.35887 54.60851 19298 ft 406 kts 279°
2026-04-20 16:55 25.36282 54.57754 19792 ft 409 kts 279°
2026-04-20 16:56 25.36684 54.54618 20293 ft 412 kts 279°
2026-04-20 16:56 25.37083 54.51473 20796 ft 415 kts 279°
2026-04-20 16:56 25.37479 54.48335 21306 ft 417 kts 278°
2026-04-20 16:56 25.37879 54.45139 21834 ft 420 kts 278°
2026-04-20 16:57 25.38284 54.41921 22361 ft 423 kts 278°
2026-04-20 16:57 25.38694 54.38684 22876 ft 426 kts 278°
2026-04-20 16:57 25.39102 54.35426 23371 ft 429 kts 278°
2026-04-20 16:57 25.39514 54.32153 23798 ft 431 kts 278°
2026-04-20 16:58 25.39926 54.28866 24220 ft 433 kts 278°
2026-04-20 16:58 25.40342 54.25555 24638 ft 435 kts 278°
2026-04-20 16:58 25.40758 54.22228 25059 ft 437 kts 278°
2026-04-20 16:58 25.41172 54.18896 25548 ft 436 kts 278°
2026-04-20 16:59 25.41584 54.15582 25788 ft 435 kts 278°
2026-04-20 16:59 25.42001 54.12232 25853 ft 442 kts 278°
2026-04-20 16:59 25.42415 54.08895 25859 ft 443 kts 278°
2026-04-20 16:59 25.42833 54.05516 25844 ft 443 kts 277°
2026-04-20 17:00 25.43666 53.98754 25841 ft 443 kts 277°
2026-04-20 17:00 25.44073 53.95413 25838 ft 443 kts 277°
2026-04-20 17:00 25.44488 53.91987 25840 ft 443 kts 277°
2026-04-20 17:01 25.44887 53.88643 25842 ft 444 kts 277°
2026-04-20 17:01 25.45296 53.85254 25838 ft 444 kts 277°
2026-04-20 17:01 25.45713 53.81861 25841 ft 444 kts 277°
2026-04-20 17:01 25.46126 53.78474 25846 ft 444 kts 277°
2026-04-20 17:02 25.46539 53.75084 25845 ft 444 kts 277°
2026-04-20 17:02 25.46950 53.71691 25837 ft 444 kts 277°
2026-04-20 17:02 25.47364 53.68293 25847 ft 445 kts 277°
2026-04-20 17:02 25.47770 53.64899 25840 ft 445 kts 277°
2026-04-20 17:03 25.48175 53.61509 25845 ft 445 kts 277°
2026-04-20 17:03 25.48582 53.58119 25849 ft 445 kts 277°
2026-04-20 17:03 25.48990 53.54726 25848 ft 445 kts 277°
2026-04-20 17:03 25.49400 53.51329 25841 ft 445 kts 277°
2026-04-20 17:04 25.49802 53.47981 25841 ft 445 kts 277°
2026-04-20 17:04 25.50208 53.44577 25844 ft 445 kts 277°
2026-04-20 17:04 25.50608 53.41186 25842 ft 445 kts 277°
2026-04-20 17:04 25.51011 53.37786 25841 ft 445 kts 277°
2026-04-20 17:05 25.51415 53.34388 25841 ft 445 kts 277°
2026-04-20 17:05 25.51817 53.30991 25840 ft 445 kts 277°
2026-04-20 17:05 25.52220 53.27589 25842 ft 445 kts 277°
2026-04-20 17:05 25.52622 53.24189 25843 ft 445 kts 277°
2026-04-20 17:06 25.53021 53.20798 25844 ft 444 kts 277°
2026-04-20 17:06 25.53417 53.17444 25842 ft 444 kts 277°
2026-04-20 17:06 25.53816 53.14045 25840 ft 444 kts 277°
2026-04-20 17:06 25.54214 53.10645 25838 ft 444 kts 277°
2026-04-20 17:07 25.54608 53.07259 25836 ft 444 kts 277°
2026-04-20 17:07 25.55002 53.03864 25841 ft 443 kts 277°
2026-04-20 17:07 25.55394 53.00474 25837 ft 443 kts 277°
2026-04-20 17:07 25.55785 52.97094 25837 ft 443 kts 277°
2026-04-20 17:08 25.56214 52.93713 25837 ft 443 kts 281°
2026-04-20 17:08 25.57043 52.90430 25839 ft 443 kts 291°
2026-04-20 17:08 25.58392 52.87424 25841 ft 443 kts 300°
2026-04-20 17:08 25.60009 52.84507 25838 ft 443 kts 301°
2026-04-20 17:09 25.61648 52.81605 25835 ft 443 kts 301°
2026-04-20 17:09 25.63273 52.78703 25834 ft 443 kts 301°
2026-04-20 17:09 25.64892 52.75783 25835 ft 443 kts 301°
2026-04-20 17:09 25.66499 52.72875 25834 ft 443 kts 301°
2026-04-20 17:10 25.68111 52.69961 25832 ft 443 kts 301°
2026-04-20 17:10 25.69720 52.67051 25833 ft 441 kts 301°
2026-04-20 17:10 25.71322 52.64152 25832 ft 441 kts 300°
2026-04-20 17:10 25.72922 52.61239 25835 ft 441 kts 300°
2026-04-20 17:11 25.74526 52.58329 25833 ft 441 kts 300°
2026-04-20 17:11 25.76095 52.55489 25826 ft 431 kts 301°
2026-04-20 17:11 25.77682 52.52688 25826 ft 428 kts 301°
2026-04-20 17:11 25.79280 52.49891 25827 ft 428 kts 301°
2026-04-20 17:12 25.80874 52.47097 25830 ft 428 kts 301°
2026-04-20 17:12 25.82464 52.44309 25832 ft 427 kts 301°
2026-04-20 17:12 25.84055 52.41517 25827 ft 427 kts 301°
2026-04-20 17:12 25.85645 52.38725 25826 ft 427 kts 301°
2026-04-20 17:13 25.87233 52.35933 25827 ft 427 kts 301°
2026-04-20 17:13 25.88795 52.33183 25830 ft 426 kts 301°
2026-04-20 17:13 25.90377 52.30393 25828 ft 426 kts 301°
2026-04-20 17:13 25.91958 52.27600 25828 ft 426 kts 301°
2026-04-20 17:14 25.93558 52.24772 25829 ft 437 kts 301°
2026-04-20 17:14 25.95181 52.21904 25835 ft 438 kts 301°
2026-04-20 17:14 25.96803 52.19036 25832 ft 439 kts 301°
2026-04-20 17:14 25.98428 52.16159 25829 ft 438 kts 301°
2026-04-20 17:15 26.00047 52.13286 25825 ft 438 kts 301°
2026-04-20 17:15 26.01645 52.10456 25826 ft 438 kts 301°
2026-04-20 17:15 26.03267 52.07587 25826 ft 438 kts 301°
2026-04-20 17:15 26.04885 52.04719 25823 ft 438 kts 301°
2026-04-20 17:16 26.06505 52.01843 25814 ft 438 kts 301°
2026-04-20 17:16 26.08120 51.98974 25819 ft 435 kts 301°
2026-04-20 17:16 26.09699 51.96168 25532 ft 421 kts 300°
2026-04-20 17:16 26.11241 51.93424 24943 ft 415 kts 300°
2026-04-20 17:17 26.12772 51.90699 24287 ft 412 kts 300°
2026-04-20 17:17 26.14284 51.88006 23620 ft 409 kts 300°
2026-04-20 17:17 26.15783 51.85332 22891 ft 406 kts 300°
2026-04-20 17:17 26.17269 51.82684 22165 ft 402 kts 300°
2026-04-20 17:18 26.18744 51.80054 21475 ft 398 kts 300°
2026-04-20 17:18 26.20184 51.77486 20814 ft 393 kts 300°
2026-04-20 17:18 26.21642 51.74882 20156 ft 389 kts 300°
2026-04-20 17:18 26.23051 51.72365 19534 ft 385 kts 300°
2026-04-20 17:19 26.24462 51.69838 18917 ft 381 kts 300°
2026-04-20 17:19 26.25852 51.67344 18304 ft 378 kts 300°
2026-04-20 17:19 26.27237 51.64860 17650 ft 374 kts 301°
2026-04-20 17:19 26.28603 51.62413 16988 ft 370 kts 300°
2026-04-20 17:20 26.29955 51.59980 16350 ft 366 kts 300°
2026-04-20 17:20 26.31274 51.57604 15737 ft 362 kts 300°
2026-04-20 17:20 26.32596 51.55227 15116 ft 359 kts 300°
2026-04-20 17:20 26.33912 51.52871 14525 ft 355 kts 300°
2026-04-20 17:21 26.35213 51.50542 13949 ft 352 kts 300°
2026-04-20 17:21 26.36499 51.48237 13348 ft 349 kts 300°
2026-04-20 17:21 26.37779 51.45942 12706 ft 346 kts 300°
2026-04-20 17:21 26.39051 51.43658 12220 ft 345 kts 300°
2026-04-20 17:22 26.40316 51.41391 12032 ft 344 kts 300°
2026-04-20 17:22 26.41560 51.39155 11987 ft 344 kts 300°
2026-04-20 17:22 26.42777 51.36821 11982 ft 343 kts 294°
2026-04-20 17:22 26.43648 51.34387 11989 ft 342 kts 289°
2026-04-20 17:23 26.44434 51.31905 12017 ft 337 kts 287°
2026-04-20 17:23 26.45182 51.29464 11574 ft 329 kts 284°
2026-04-20 17:23 26.45539 51.26969 11033 ft 323 kts 269°
2026-04-20 17:23 26.45265 51.24536 10791 ft 310 kts 254°
2026-04-20 17:24 26.44316 51.22435 10605 ft 298 kts 237°
2026-04-20 17:24 26.43096 51.20658 10457 ft 285 kts 233°
2026-04-20 17:24 26.41861 51.18986 10284 ft 274 kts 233°
2026-04-20 17:24 26.40651 51.17368 9960 ft 269 kts 233°
2026-04-20 17:25 26.39453 51.15764 9562 ft 267 kts 233°
2026-04-20 17:25 26.38272 51.14172 9138 ft 265 kts 233°
2026-04-20 17:25 26.37098 51.12579 8710 ft 264 kts 233°
2026-04-20 17:25 26.35953 51.11016 8300 ft 262 kts 233°
2026-04-20 17:26 26.34811 51.09443 7891 ft 261 kts 233°
2026-04-20 17:26 26.33675 51.07862 7475 ft 260 kts 233°
2026-04-20 17:26 26.32550 51.06283 7074 ft 259 kts 233°
2026-04-20 17:26 26.31438 51.04703 6682 ft 258 kts 232°
2026-04-20 17:27 26.30710 51.03660 6432 ft 256 kts 233°
2026-04-20 17:27 26.29627 51.02094 5894 ft 255 kts 233°
2026-04-20 17:27 26.28539 51.00505 5385 ft 260 kts 232°
2026-04-20 17:27 26.27076 50.98358 4906 ft 263 kts 232°
2026-04-20 17:28 26.26327 50.97256 4665 ft 265 kts 232°
2026-04-20 17:28 26.25234 50.95640 4306 ft 263 kts 232°
2026-04-20 17:28 26.24137 50.94011 3898 ft 263 kts 232°
2026-04-20 17:28 26.23070 50.92396 3669 ft 254 kts 233°
2026-04-20 17:29 26.22051 50.90832 3453 ft 244 kts 233°
2026-04-20 17:29 26.21083 50.89339 3260 ft 231 kts 233°
2026-04-20 17:29 26.20181 50.87940 3154 ft 213 kts 233°
2026-04-20 17:29 26.19334 50.86626 2890 ft 207 kts 232°
2026-04-20 17:30 26.18506 50.85309 2503 ft 208 kts 237°
2026-04-20 17:30 26.18142 50.83739 2122 ft 214 kts 269°
2026-04-20 17:30 26.18181 50.82082 2008 ft 213 kts 272°
2026-04-20 17:30 26.18233 50.80521 1981 ft 194 kts 273°
2026-04-20 17:31 26.18351 50.79089 1956 ft 182 kts 287°
2026-04-20 17:31 26.18824 50.77797 1982 ft 180 kts 300°
2026-04-20 17:31 26.19463 50.76593 1993 ft 180 kts 306°
2026-04-20 17:31 26.20143 50.75414 2003 ft 181 kts 306°
2026-04-20 17:32 26.20821 50.74236 1948 ft 180 kts 306°
2026-04-20 17:32 26.21497 50.73063 1756 ft 179 kts 306°
2026-04-20 17:32 26.22167 50.71900 1527 ft 177 kts 307°
2026-04-20 17:32 26.22844 50.70722 1276 ft 176 kts 306°
2026-04-20 17:33 26.23450 50.69668 1018 ft 148 kts 306°
2026-04-20 17:33 26.23989 50.68732 833 ft 140 kts 306°
2026-04-20 17:33 26.24506 50.67834 667 ft 136 kts 306°
2026-04-20 17:33 26.25001 50.66972 505 ft 132 kts 306°
2026-04-20 17:34 26.25498 50.66100 329 ft 132 kts 306°
2026-04-20 17:34 26.25984 50.65246 161 ft 132 kts 307°
2026-04-20 17:34 26.26492 50.64380 32 ft 130 kts 305°
2026-04-20 17:34 26.26938 50.63623 20 ft 84 kts 303°
2026-04-20 17:35 26.27130 50.63296 20 ft 47 kts 304°
2026-04-20 17:35 26.27186 50.63188 21 ft 8 kts 295°
2026-04-20 17:35 26.27217 50.63122 21 ft 11 kts 296°
2026-04-20 17:35 26.27246 50.63034 23 ft 13 kts 281°
2026-04-20 17:36 26.27255 50.62923 22 ft 12 kts 273°
2026-04-20 17:36 26.27249 50.62824 24 ft 15 kts 225°
2026-04-20 17:36 26.27168 50.62884 28 ft 17 kts 123°
2026-04-20 17:36 26.27097 50.62907 28 ft 0 kts 210°
2026-04-20 17:37 26.27091 50.62902 28 ft 2 kts 219°
2026-04-20 17:38 26.27071 50.62884 27 ft 5 kts 220°
2026-04-20 17:38 26.27039 50.62859 27 ft 7 kts 213°
2026-04-20 17:38 26.26995 50.62827 26 ft 5 kts 213°
2026-04-20 17:38 26.26986 50.62820 32 ft 2 kts 213°